Content
SEND FEEDBACK

Daily
Averages
Monthly
Summary
Switzerland

RARON, SWITZERLAND


Home > Europe > Switzerland
Elevation: 643 meters     Latitude: 46 18N     Longitude: 007 49E

WEATHER
 
SELECT A DAY
Number of Records: 147,614;   Date Range: 3/24/97 - 11/21/14
 
SHARE

PRINT THIS DATA

[ ← Previous Day ]
WEATHER ALMANAC - 5 FEBRUARY, 2013
[ Next Day → ]
[ °F ]   °C
Weather ElementAverageHighLow
Temperature4.8 °C10 °C (1:50 pm)1 °C (7:20 am)
Dewpoint0.1 °C3 °C (12:50 pm)-3 °C (2:20 pm)
Humidity72.2 %100 % (7:20 am)37 % (3:00 pm)
Barometer1010.8 hPa1022 hPa (1:00 am)1003 hPa (5:20 pm)
Wind Speed10.5 km/h31.5 km/h (1:00 pm)
Weather ElementAverage
Visibility8.5 km
Wind DirectionSSE (170.8 °)

Weather ElementTotal
Precipitation---
Heating Degree Days12.8 (Base 18.3)
Averaged from 40 records on 5 February, 2013
WEATHER CONDITIONS BREAKOUT
WIND DIRECTION BREAKOUT
WEATHER BY HOUR - 5 FEBRUARY, 2013
[ °F ]   °C
Local TimeTemperatureDewpointHumidityBarometerVisibilityWind DirectionWind SpeedGust SpeedPrecipitationEventsConditions
1:00 AM2.2 °C1.1 °C88 %1022 hPaEast (90°)1.9 km/h
2:00 AM1.7 °C0.6 °C87 %1021.7 hPaCalm
3:00 AM1.1 °C0 °C90 %1020.3 hPaEast (90°)1.9 km/h
6:00 AM1.1 °C0.6 °C96 %1017.9 hPaNW (310°)1.9 km/h
7:00 AM1.7 °C0.6 °C89 %1017.6 hPa0 kmENE (70°)5.6 km/hFogHeavy Fog
7:20 AM1 °C1 °C100 %1015.2 hPa6 kmNE (40°)9.3 km/hOvercast
7:50 AM1 °C1 °C100 %1014.2 hPa6 kmVariable5.6 km/hOvercast
8:00 AM1.7 °C0.6 °C92 %1016.9 hPaSSW (210°)1.9 km/h
8:20 AM1 °C1 °C100 %1014.2 hPa6 kmVariable1.9 km/hRainLight Rain Showers
8:50 AM2 °C1 °C93 %1014.2 hPa5 kmVariable5.6 km/hRainLight Rain Showers
9:00 AM2.2 °C0.6 °C87 %1016.9 hPaWest (280°)3.7 km/h
9:20 AM2 °C1 °C93 %1014.2 hPa6.9 kmVariable1.9 km/hMostly Cloudy
9:50 AM3 °C1 °C87 %1012.2 hPa10 kmENE (70°)9.3 km/hMostly Cloudy
10:20 AM3 °C1 °C87 %1012.2 hPa6.9 kmENE (60°)7.4 km/hMostly Cloudy
10:50 AM3 °C1 °C87 %1012.2 hPa6.9 kmVariable3.7 km/hRainLight Rain Showers
11:00 AM3.9 °C1.7 °C82 %1013.9 hPaSSW (200°)7.4 km/h
11:20 AM3 °C2 °C93 %1012.2 hPa6.9 kmSW (230°)5.6 km/hScattered Clouds
11:50 AM4 °C2 °C87 %1011.2 hPa10 kmSW (220°)5.6 km/hScattered Clouds
12:00 PM5.6 °C2.2 °C72 %1012.2 hPaWSW (250°)5.6 km/h
12:20 PM5 °C2 °C81 %1010.2 hPa10 kmVariable1.9 km/hScattered Clouds
12:50 PM7 °C3 °C76 %1009.1 hPa10 kmVariable5.6 km/hScattered Clouds
1:00 PM9.4 °C0.6 °C43 %1009.8 hPa14.5 kmWest (260°)31.5 km/hPartly Cloudy
1:20 PM9 °C-1 °C50 %1009.1 hPa10 kmWSW (250°)29.6 km/hMostly Cloudy
1:50 PM10 °C-2 °C43 %1008.1 hPa10 kmWest (270°)27.8 km/hMostly Cloudy
2:00 PM9.4 °C-0.6 °C38 %1008.8 hPaWest (270°)25.9 km/h
2:20 PM8 °C-3 °C46 %1008.1 hPa10 kmWSW (250°)31.5 km/hOvercast
2:50 PM8 °C-2 °C50 %1007.1 hPa10 kmWSW (250°)20.4 km/hOvercast
3:00 PM8.3 °C-1.7 °C37 %1007.8 hPaWest (260°)29.6 km/h
3:20 PM9 °C-2 °C46 %1007.1 hPa10 kmWest (260°)22.2 km/hOvercast
3:50 PM9 °C-3 °C43 %1006.1 hPa10 kmSSW (210°)11.1 km/hMostly Cloudy
4:20 PM8 °C-2 °C50 %1005.1 hPa10 kmWest (270°)18.5 km/hMostly Cloudy
4:50 PM8 °C-2 °C50 %1004.1 hPa10 kmVariable3.7 km/hMostly Cloudy
5:00 PM7.2 °C-1.1 °C44 %1005.1 hPaSouth (190°)5.6 km/h
5:20 PM7 °C-1 °C57 %1003 hPa10 kmWSW (240°)5.6 km/hOvercast
5:50 PM7 °C-1 °C57 %1003 hPa10 kmWSW (240°)11.1 km/hOvercast
6:00 PM7.2 °C-0.6 °C45 %1004.1 hPaWSW (240°)7.4 km/h
7:00 PM5 °C0.6 °C62 %1005.4 hPa9.7 kmNW (310°)13 km/hRainLight Rain
8:00 PM2.2 °C0.6 °C86 %1006.8 hPaSW (230°)11.1 km/h
9:00 PM1.7 °C0.6 °C90 %1007.5 hPaWSW (250°)14.8 km/h
11:00 PM2.2 °C0.6 °C85 %1006.1 hPaWNW (290°)3.7 km/h
Hourly data recorded from LSGS, located 0 kilometers away from Raron, Switzerland







STORIES FROM OUR PARTNERS